Orbital Elements at Epoch 2459000.5 (2020-May-31.0) TDB
Reference: JPL 13 (heliocentric ecliptic J2000)
Element | Value | Uncertainty (1-sigma) | Units |
e | .1267430600195216 | 4.8482e-08 | |
a | 2.472344087581264 | 1.2242e-08 | au |
q | 2.158991632500042 | 1.2078e-07 | au |
i | 5.920470331104351 | 4.531e-06 | deg |
node | 179.3191408449656 | 5.635e-05 | deg |
peri | 122.4688863547346 | 5.947e-05 | deg |
M | 168.612600002885 | 2.1059e-05 | deg |
tp | 2458335.457620397800 (2018-Aug-04.95762040) | 8.1581e-05 | TDB |
period | 1419.913201342578 3.89 | 1.0547e-05 2.888e-08 | d yr |
n | .2535366243933836 | 1.8832e-09 | deg/d |
Q | 2.785696542662485 | 1.3794e-08 | au |
|
| | Orbit Determination Parameters
Additional Information
|